Location: St Paul
(33.9360°N, 83.4200°W)
Time: 16:43:57
(UTC-05:00)

SMAP - Pass Details

Date: 06 October 2017
Orbit: 681 x 683 km, 98.1° (Epoch: 17 December)

Event Time Altitude Azimuth Distance (km) Brightness Sun altitude
Rises 19:31:36 0° 181° (S) 3,027 6.5 -5.1°
Reaches altitude 10° 19:33:54 10° 187° (S) 2,116 5.7 -5.6°
Maximum altitude 19:38:20 45° 261° (W) 923 4.4 -6.5°
Drops below altitude 10° 19:42:48 10° 334° (NNW) 2,130 6.0 -7.5°
Sets 19:45:09 0° 341° (NNW) 3,050 6.7 -7.9°
